Location: Dürabuch
(48.2640°N, 11.2185°E)
Time: 02:30:38
(UTC+00:00)

Cosmos 1850 Rocket - Pass Details

Date: 23 May 2024
Orbit: 753 x 782 km, 74.0° (Epoch: 19 June)

Event Time Altitude Azimuth Distance (km) Brightness Sun altitude
Exits shadow 01:46:19 18° 223° (SW) 1,810 5.3 -12.9°
Maximum altitude 01:50:07 57° 297° (WNW) 910 4.3 -12.5°
Drops below altitude 10° 01:55:19 10° 16° (NNE) 2,321 7.7 -12.0°
Sets 01:57:44 0° 21° (NNE) 3,246 8.8 -11.8°
